TimeCEST,TemperatureF,Dew PointF,Humidity,Sea Level PressureIn,VisibilityMPH,Wind Direction,Wind SpeedMPH,Gust SpeedMPH,PrecipitationIn,Events,Conditions,WindDirDegrees,DateUTC
12:00 AM,41.0,41.0,100,30.06,-9999.0,Calm,Calm,-,N/A,,Clear,0,2012-10-07 22:00:00
1:00 AM,39.2,37.4,93,30.09,-9999.0,Calm,Calm,-,N/A,,Clear,0,2012-10-07 23:00:00
2:00 AM,41.0,41.0,100,30.09,6.2,Calm,Calm,-,N/A,,Scattered Clouds,0,2012-10-08 00:00:00
3:00 AM,44.6,41.0,87,30.09,-9999.0,West,8.1,-,N/A,,Clear,260,2012-10-08 01:00:00
4:00 AM,41.0,39.2,93,30.12,-9999.0,Variable,2.3,-,N/A,,Clear,0,2012-10-08 02:00:00
5:00 AM,39.2,37.4,93,30.12,-9999.0,NW,4.6,-,N/A,,Clear,310,2012-10-08 03:00:00
6:00 AM,39.2,37.4,93,30.12,-9999.0,Calm,Calm,-,N/A,,Clear,0,2012-10-08 04:00:00
7:00 AM,39.2,37.4,93,30.12,-9999.0,Variable,2.3,-,N/A,,Clear,0,2012-10-08 05:00:00
8:00 AM,39.2,37.4,93,30.12,-9999.0,West,4.6,-,N/A,,Clear,280,2012-10-08 06:00:00
9:00 AM,44.6,41.0,87,30.15,-9999.0,South,2.3,-,N/A,,Clear,180,2012-10-08 07:00:00
10:00 AM,48.2,44.6,87,30.15,6.2,NW,9.2,-,N/A,,Scattered Clouds,320,2012-10-08 08:00:00
11:00 AM,50.0,42.8,76,30.15,6.2,NNW,9.2,-,N/A,,Scattered Clouds,330,2012-10-08 09:00:00
12:00 PM,53.6,41.0,62,30.15,6.2,NW,12.7,-,N/A,,Scattered Clouds,310,2012-10-08 10:00:00
1:00 PM,53.6,39.2,58,30.12,6.2,WNW,10.4,-,N/A,,Scattered Clouds,290,2012-10-08 11:00:00
2:00 PM,51.8,39.2,62,30.12,-9999.0,NW,9.2,-,N/A,,Clear,320,2012-10-08 12:00:00
3:00 PM,53.6,37.4,54,30.09,-9999.0,WNW,9.2,-,N/A,,Clear,290,2012-10-08 13:00:00
4:00 PM,51.8,39.2,62,30.09,-9999.0,NW,4.6,-,N/A,,Clear,310,2012-10-08 14:00:00
5:00 PM,51.8,41.0,67,30.06,-9999.0,NW,4.6,-,N/A,,Clear,310,2012-10-08 15:00:00
6:00 PM,51.8,39.2,62,30.06,-9999.0,North,3.5,-,N/A,,Clear,350,2012-10-08 16:00:00
7:00 PM,48.2,41.0,76,30.06,-9999.0,Calm,Calm,-,N/A,,Clear,0,2012-10-08 17:00:00
8:00 PM,44.6,41.0,87,30.06,-9999.0,WNW,1.2,-,N/A,,Clear,300,2012-10-08 18:00:00
10:00 PM,39.2,37.4,93,30.04,-9999.0,SSW,2.3,-,N/A,,Clear,210,2012-10-08 20:00:00
11:00 PM,41.0,39.2,93,30.04,-9999.0,South,4.6,-,N/A,,Clear,180,2012-10-08 21:00:00